KUIPER-00289

导读

KUIPER-00289(NORAD编号68591)是亚马逊“柯伊伯计划”(Project Kuiper)星座中的一颗低轨宽带通信卫星,于2025年4月28日,随首批27颗柯伊伯卫星由联合发射联盟Atlas V火箭在佛罗里达卡纳维拉尔角太空军基地发射升空,部署在近地轨道,旨在为全球提供高速低延迟宽带互联网服务,尤其服务偏远和欠发达地区网络覆盖。卫星采用梯形折叠设计,配备多用户波束相控阵天线,支持软件定义动态容量分配,具备星上再生、路由交换能力,是柯伊伯计划大规模星座组网部署的组成部分。

基本信息
目录编号:
68591
目录名称:
KUIPER-00289
国际标识:
2026-072U
轨道中心:
EARTH
卫星名称:
KUIPER-00289
卫星全名:
KUIPER-00289
卫星状态:
在轨 (已飞行164 天)
发射日期:
2026-04-04 UTC
国别 :
美国 (US)
星等 :
--
该卫星已列入 空间交会检测服务 Space Conjunction Data Service (SCDS) ,当前飞行风险评估等级: 无高风险
轨道信息
数据来源 国际轨道数据 AOE轨道数据
星历时间 2026-09-15T23:10:29+0800
8小时前
查看轨道信息
2026-09-15T22:00:00+0800
9小时前
查看轨道信息
半长轴 7007.68km 7007.681km
偏心率 0.0000991 0.0001155
轨道倾角 51.898° 51.898°
近地点辐角 94.740° 81.656°
升交点赤经 138.198° 138.416°
平近点角 265.367° 17.498°
近地点 628.848km 628.734km
远地点 630.238km 630.354km
周期 97.302分钟 97.302分钟
每日圈数 14.799307 14.799305
详细信息
使用方式:
暂无
2D轨道图
3D轨道图
轨道高度分析图
轨道倾角分析图
轨道综合分析图
查看轨道综合分析图
与全量物体交会距离演化趋势 订阅飞行安全评估服务
与全量物体交会风险概率演化趋势 订阅飞行安全评估服务